When you browse on this site, cookies collect data to enhance your experience and personalize the content and advertising you see.
Visit our Privacy Policy to learn more. By continuing to use the site, you agree to this use of cookies and data.
  • In Lithuania
  • List of Countries
  • For 7 days
  • Water Temperature
  • Satellite Maps
  • Weather Map
  • Weather Widgets
  • user-avatar
    Login

    Hourly Weather Egorlyk

    Today, 22 February, Friday

    Time Temperature Precipitation Wind Pressure Humidity
    00:00 +2°C° 0 mm 8 mps 753 mmHg 73%
    01:00 +2°C° 0.1 mm 8 mps 753 mmHg 72%
    02:00 +2°C° 0.1 mm 8 mps 753 mmHg 71%
    03:00 +2°C° 0.1 mm 8 mps 753 mmHg 70%
    04:00 +2°C° 0 mm 7 mps 753 mmHg 69%
    05:00 0°C° 0 mm 7 mps 753 mmHg 69%
    06:00 -1°C° 0 mm 6 mps 754 mmHg 68%
    07:00 -1°C° 0 mm 6 mps 754 mmHg 64%
    08:00 -1°C° 0 mm 6 mps 754 mmHg 60%
    09:00 -1°C° 0 mm 6 mps 755 mmHg 56%
    10:00 +1°C° 0 mm 6 mps 755 mmHg 56%
    11:00 +2°C° 0 mm 5 mps 754 mmHg 56%
    12:00 +3°C° 0 mm 5 mps 754 mmHg 55%
    13:00 +4°C° 0.2 mm 4 mps 754 mmHg 61%
    14:00 +4°C° 0.2 mm 4 mps 754 mmHg 66%
    15:00 +4°C° 0.2 mm 3 mps 754 mmHg 71%
    16:00 +5°C° 0.2 mm 2 mps 754 mmHg 74%
    17:00 +6°C° 0.2 mm 1 mps 754 mmHg 77%
    18:00 +5°C° 0.2 mm 1 mps 755 mmHg 80%
    19:00 +5°C° 0 mm 1 mps 755 mmHg 82%
    20:00 +5°C° 0 mm 1 mps 755 mmHg 83%
    21:00 +4°C° 0 mm 2 mps 755 mmHg 84%
    22:00 +4°C° 0 mm 2 mps 755 mmHg 85%
    23:00 +3°C° 0 mm 2 mps 755 mmHg 86%

    Tomorrow, 23 February, Saturday

    Time Temperature Precipitation Wind Pressure Humidity
    00:00 +3°C° 0 mm 2 mps 755 mmHg 87%
    01:00 +3°C° 0 mm 2 mps 755 mmHg 87%
    02:00 +3°C° 0 mm 2 mps 755 mmHg 87%
    03:00 +3°C° 0 mm 2 mps 755 mmHg 86%
    04:00 +3°C° 0 mm 2 mps 756 mmHg 86%
    05:00 +2°C° 0 mm 3 mps 756 mmHg 86%
    06:00 +2°C° 0 mm 3 mps 756 mmHg 86%
    07:00 +2°C° 0 mm 3 mps 756 mmHg 83%
    08:00 +3°C° 0 mm 3 mps 757 mmHg 80%
    09:00 +3°C° 0 mm 4 mps 757 mmHg 77%
    10:00 +5°C° 0 mm 4 mps 757 mmHg 71%
    11:00 +6°C° 0 mm 4 mps 757 mmHg 66%
    12:00 +7°C° 0 mm 4 mps 757 mmHg 60%
    13:00 +7°C° 0 mm 4 mps 757 mmHg 61%
    14:00 +7°C° 0 mm 4 mps 757 mmHg 63%
    15:00 +8°C° 0 mm 4 mps 758 mmHg 64%
    16:00 +8°C° 0.1 mm 3 mps 758 mmHg 69%
    17:00 +7°C° 0.1 mm 3 mps 758 mmHg 73%
    18:00 +7°C° 0.1 mm 2 mps 758 mmHg 77%
    19:00 +7°C° 0.3 mm 2 mps 759 mmHg 79%
    20:00 +6°C° 0.3 mm 2 mps 759 mmHg 80%
    21:00 +6°C° 0.3 mm 2 mps 760 mmHg 82%
    22:00 +4°C° 0.2 mm 3 mps 760 mmHg 83%
    23:00 +4°C° 0.2 mm 3 mps 760 mmHg 83%

    Day after tomorrow, 24 February, Sunday

    Time Temperature Precipitation Wind Pressure Humidity
    00:00 +3°C° 0.2 mm 3 mps 760 mmHg 84%
    01:00 +3°C° 0 mm 3 mps 760 mmHg 85%
    02:00 +2°C° 0 mm 3 mps 761 mmHg 87%
    03:00 +3°C° 0 mm 2 mps 761 mmHg 88%
    04:00 +2°C° 0 mm 2 mps 761 mmHg 89%
    05:00 +2°C° 0 mm 2 mps 761 mmHg 90%
    06:00 +2°C° 0 mm 2 mps 761 mmHg 91%
    07:00 +2°C° 0 mm 2 mps 761 mmHg 89%
    08:00 +1°C° 0 mm 3 mps 762 mmHg 88%
    09:00 +1°C° 0 mm 3 mps 762 mmHg 86%
    10:00 +2°C° 0 mm 3 mps 762 mmHg 83%
    11:00 +3°C° 0 mm 3 mps 762 mmHg 79%
    12:00 +4°C° 0 mm 3 mps 762 mmHg 75%
    13:00 +4°C° 0 mm 3 mps 762 mmHg 75%
    14:00 +4°C° 0 mm 3 mps 762 mmHg 76%
    15:00 +4°C° 0 mm 3 mps 762 mmHg 76%
    16:00 +3°C° 0 mm 3 mps 762 mmHg 78%
    17:00 +2°C° 0 mm 3 mps 762 mmHg 80%
    18:00 +2°C° 0 mm 3 mps 763 mmHg 82%
    19:00 +1°C° 0 mm 3 mps 763 mmHg 83%
    20:00 +1°C° 0 mm 3 mps 763 mmHg 84%
    21:00 0°C° 0 mm 3 mps 764 mmHg 85%
    22:00 0°C° 0 mm 3 mps 764 mmHg 85%
    23:00 0°C° 0 mm 3 mps 764 mmHg 85%

    25 February, Monday

    Time Temperature Precipitation Wind Pressure Humidity
    00:00 -1°C° 0 mm 3 mps 764 mmHg 85%
    01:00 -1°C° 0 mm 3 mps 764 mmHg 85%
    02:00 -2°C° 0 mm 3 mps 764 mmHg 85%
    03:00 -2°C° 0 mm 3 mps 764 mmHg 85%
    04:00 -3°C° 0 mm 2 mps 764 mmHg 85%
    05:00 -3°C° 0 mm 2 mps 764 mmHg 85%
    06:00 -4°C° 0 mm 2 mps 764 mmHg 84%
    07:00 -3°C° 0 mm 2 mps 764 mmHg 79%
    08:00 -4°C° 0 mm 3 mps 764 mmHg 74%
    09:00 -2°C° 0 mm 3 mps 764 mmHg 69%
    10:00 -1°C° 0 mm 3 mps 764 mmHg 60%
    11:00 -1°C° 0 mm 4 mps 763 mmHg 51%
    12:00 +1°C° 0 mm 4 mps 763 mmHg 42%
    13:00 +1°C° 0 mm 5 mps 762 mmHg 44%
    14:00 +2°C° 0 mm 5 mps 761 mmHg 45%
    15:00 +2°C° 0 mm 5 mps 760 mmHg 46%
    16:00 +1°C° 0 mm 5 mps 760 mmHg 53%
    17:00 +1°C° 0 mm 4 mps 760 mmHg 59%
    18:00 0°C° 0 mm 4 mps 759 mmHg 66%
    19:00 -1°C° 0 mm 4 mps 759 mmHg 71%
    20:00 -1°C° 0 mm 4 mps 759 mmHg 76%
    21:00 -2°C° 0 mm 5 mps 759 mmHg 81%
    22:00 -2°C° 0 mm 5 mps 758 mmHg 81%
    23:00 -3°C° 0 mm 6 mps 758 mmHg 81%

    26 February, Tuesday

    Time Temperature Precipitation Wind Pressure Humidity
    00:00 -3°C° 0 mm 6 mps 757 mmHg 81%
    01:00 -3°C° 0 mm 7 mps 756 mmHg 81%
    02:00 -3°C° 0 mm 7 mps 756 mmHg 81%
    03:00 -3°C° 0 mm 7 mps 755 mmHg 81%
    04:00 -4°C° 0.1 mm 8 mps 754 mmHg 81%
    05:00 -4°C° 0.1 mm 8 mps 754 mmHg 81%
    06:00 -4°C° 0.1 mm 9 mps 753 mmHg 81%
    07:00 -3°C° 0.4 mm 9 mps 752 mmHg 81%
    08:00 -3°C° 0.4 mm 10 mps 752 mmHg 81%
    09:00 -3°C° 0.4 mm 10 mps 751 mmHg 81%
    10:00 -2°C° 0.4 mm 10 mps 750 mmHg 81%
    11:00 -2°C° 0.4 mm 10 mps 749 mmHg 81%
    12:00 0°C° 0.4 mm 9 mps 749 mmHg 81%
    13:00 0°C° 0.3 mm 9 mps 748 mmHg 81%
    14:00 0°C° 0.3 mm 9 mps 747 mmHg 81%
    15:00 0°C° 0.3 mm 9 mps 747 mmHg 80%
    16:00 -1°C° 0.3 mm 8 mps 747 mmHg 81%
    17:00 -1°C° 0.3 mm 7 mps 746 mmHg 83%
    18:00 -2°C° 0.3 mm 7 mps 746 mmHg 84%
    19:00 -2°C° 0.1 mm 6 mps 746 mmHg 85%
    20:00 -2°C° 0.1 mm 6 mps 746 mmHg 87%
    21:00 -2°C° 0.1 mm 6 mps 746 mmHg 88%
    22:00 -2°C° 0 mm 5 mps 746 mmHg 89%
    23:00 -2°C° 0 mm 5 mps 745 mmHg 90%

    27 February, Wednesday

    Time Temperature Precipitation Wind Pressure Humidity
    00:00 -2°C° 0 mm 5 mps 745 mmHg 91%
    01:00 -4°C° 0 mm 5 mps 745 mmHg 92%
    02:00 -3°C° 0 mm 4 mps 744 mmHg 93%
    03:00 -3°C° 0 mm 4 mps 744 mmHg 95%
    04:00 -3°C° 0 mm 4 mps 744 mmHg 94%
    05:00 -2°C° 0 mm 3 mps 743 mmHg 94%
    06:00 -2°C° 0 mm 3 mps 743 mmHg 94%
    07:00 -2°C° 0 mm 3 mps 743 mmHg 92%
    08:00 -1°C° 0 mm 3 mps 743 mmHg 90%
    09:00 -1°C° 0 mm 3 mps 743 mmHg 88%
    10:00 +1°C° 0 mm 2 mps 743 mmHg 83%
    11:00 +2°C° 0 mm 2 mps 743 mmHg 78%
    12:00 +4°C° 0 mm 1 mps 743 mmHg 72%
    13:00 +4°C° 0.1 mm 1 mps 743 mmHg 70%
    14:00 +4°C° 0.1 mm 1 mps 743 mmHg 67%
    15:00 +4°C° 0.1 mm 1 mps 743 mmHg 65%
    16:00 +4°C° 0 mm 1 mps 744 mmHg 69%
    17:00 +3°C° 0 mm 1 mps 744 mmHg 73%
    18:00 +3°C° 0 mm 1 mps 745 mmHg 77%
    19:00 +2°C° 0.1 mm 2 mps 745 mmHg 79%
    20:00 +1°C° 0.1 mm 2 mps 746 mmHg 82%
    21:00 +1°C° 0.1 mm 2 mps 746 mmHg 84%
    22:00 -1°C° 0 mm 2 mps 746 mmHg 86%
    23:00 -1°C° 0 mm 2 mps 747 mmHg 89%
    Show more